This is the latest recevied weather packets stored in our database for station/object KU9TRY. If no packets are shown the sender has not sent any weather packets the latest 10 day(s).
| Time | Temp. | Humidity | Pressure | Rain* | Wind** | Luminosity | Snow |
|---|---|---|---|---|---|---|---|
| 1777650947 | 18.89° C | 40% | 1015.9 hPa | 0 mm | - | 922 W/m² | - |
| 1777650644 | 18.89° C | 44% | 1015.9 hPa | 0 mm | - | 912 W/m² | - |
| 1777650342 | 18.33° C | 43% | 1016 hPa | 0 mm | - | 900 W/m² | - |
| 1777650038 | 18.89° C | 40% | 1016 hPa | 0 mm | - | 890 W/m² | - |
| 1777649736 | 18.33° C | 41% | 1016 hPa | 0 mm | - | 881 W/m² | - |
| 1777649432 | 18.33° C | 44% | 1016 hPa | 0 mm | - | 859 W/m² | - |
| 1777649129 | 18.33° C | 43% | 1015.9 hPa | 0 mm | - | 680 W/m² | - |
| 1777648827 | 17.78° C | 43% | 1015.9 hPa | 0 mm | - | 853 W/m² | - |
| 1777648523 | 17.78° C | 43% | 1016 hPa | 0 mm | - | 840 W/m² | - |
| 1777648220 | 17.78° C | 48% | 1015.8 hPa | 0 mm | - | 825 W/m² | - |
| 1777647915 | 17.78° C | 44% | 1015.7 hPa | 0 mm | - | 803 W/m² | - |
| 1777647309 | 17.78° C | 51% | 1015.7 hPa | 0 mm | - | 713 W/m² | - |
| 1777647007 | 17.22° C | 53% | 1015.7 hPa | 0 mm | - | 739 W/m² | - |
| 1777646398 | 16.67° C | 59% | 1015.9 hPa | 0 mm | - | 719 W/m² | - |
| 1777646094 | 16.11° C | 61% | 1015.8 hPa | 0 mm | - | 678 W/m² | - |
| 1777645791 | 16.11° C | 64% | 1016.1 hPa | 0 mm | - | 693 W/m² | - |
| 1777645489 | 15.56° C | 67% | 1016 hPa | 0 mm | - | 673 W/m² | - |
| 1777645184 | 15° C | 69% | 1016.1 hPa | 0 mm | - | 652 W/m² | - |
| 1777644880 | 14.44° C | 70% | 1016 hPa | 0 mm | - | 638 W/m² | - |
| 1777644579 | 14.44° C | 71% | 1015.9 hPa | 0 mm | - | 652 W/m² | - |
| 1777643970 | 13.33° C | 79% | 1015.9 hPa | 0 mm | - | 697 W/m² | - |
| 1777643365 | 12.22° C | 81% | 1015.8 hPa | 0 mm | - | 698 W/m² | - |
| 1777642758 | 11.67° C | 83% | 1016.1 hPa | 0 mm | - | 108 W/m² | - |
| 1777642455 | 11.11° C | 85% | 1016.2 hPa | 0 mm | - | 81 W/m² | - |
| 1777642152 | 10.56° C | 84% | 1016 hPa | 0 mm | - | 95 W/m² | - |
* Rain latest hour (hover to see other rain measurements)
** Current wind speed in m/s (hover to see current wind gust speed)